Weather History for Knox, IN

Change the Weather History Date:

Wednesday, September 18, 2013

  Actual Average (KVPZ) Record (KVPZ)
Temperature  
Mean Temperature 67 °F 63 °F  
Max Temperature 96 °F 74 °F 89 °F (2007)
Min Temperature 54 °F 52 °F 43 °F (2009)
Degree Days  
Heating Degree Days 0 4  
Month to date heating degree days 39  
Since 1 July heating degree days 56  
Cooling Degree Days 2 2  
Month to date cooling degree days 53  
Year to date cooling degree days 689  
Growing Degree Days 17 (Base 50)    
Moisture  
Dew Point 57 °F    
Average Humidity 71    
Maximum Humidity 98    
Minimum Humidity 46    
Precipitation  
Precipitation 0.00 in 0.09 in 1.94 in (2013)
Month to date precipitation 1.98  
Year to date precipitation 27.52  
Sea Level Pressure  
Sea Level Pressure 30.07 in    
Wind  
Wind Speed 5 mph (SSE)    
Max Wind Speed 16 mph    
Max Gust Speed 20 mph    
Visibility 9 miles    
Events      
T = Trace of Precipitation, MM = Missing Value Source: NWS Daily Summary

Daily Weather History Graph

Daily Weather History Graph

Search for Another Location

Airport:

Trip Planner

Search our weather history database for the weather conditions in past years. The results will help you decide how hot, cold, wet, or windy it might be!

Date:

Astronomy

Sep. 18, 2013 Rise Set
Actual Time 6:30 AM CDT 6:50 PM CDT
Civil Twilight 6:02 AM CDT 7:17 PM CDT
Nautical Twilight 5:30 AM CDT 7:50 PM CDT
Astronomical Twilight 4:56 AM CDT 8:23 PM CDT
Moon 6:12 PM CDT (9/18) 5:32 AM CDT (9/18)
Length of Visible Light 13h 15m
Length of Day
12h 19m
Waxing Gibbous, 99% of the Moon is Illuminated
Sep 18
Waxing Gibbous
Sep 19
Full
Sep 26
Last Quarter
Oct 4
New
Oct 11
First Quarter

Hourly Weather History & Observations

Time (CDT) Temp. Heat Index Dew Point Humidity Pressure Visibility Wind Dir Wind Speed Gust Speed Precip Events Conditions
12:15 AM 56.5 °F - 49.8 °F 78% 30.14 in 10.0 mi ESE 4.6 mph - N/A   Clear
12:35 AM 57.4 °F - 48.9 °F 73% 30.14 in 10.0 mi ESE 5.8 mph - N/A   Clear
12:55 AM 58.3 °F - 48.2 °F 69% 30.13 in 10.0 mi ESE 4.6 mph - N/A   Clear
1:15 AM 58.1 °F - 48.9 °F 71% 30.13 in 10.0 mi ESE 4.6 mph - N/A   Clear
1:35 AM 57.4 °F - 49.6 °F 75% 30.13 in 10.0 mi ESE 3.5 mph - N/A   Clear
1:55 AM 57.2 °F - 49.5 °F 75% 30.13 in 10.0 mi Calm Calm - N/A   Clear
2:15 AM 56.8 °F - 49.6 °F 77% 30.13 in 10.0 mi East 3.5 mph - N/A   Clear
2:35 AM 55.9 °F - 49.8 °F 80% 30.13 in 10.0 mi East 3.5 mph - N/A   Scattered Clouds
2:55 AM 55.9 °F - 49.5 °F 79% 30.13 in 10.0 mi ESE 4.6 mph - N/A   Scattered Clouds
3:15 AM 55.0 °F - 49.3 °F 81% 30.13 in 10.0 mi Calm Calm - N/A   Clear
3:35 AM 54.7 °F - 49.5 °F 83% 30.12 in 10.0 mi ESE 3.5 mph - N/A   Clear
3:55 AM 54.5 °F - 50.0 °F 85% 30.12 in 10.0 mi ESE 4.6 mph - N/A   Clear
4:15 AM 54.5 °F - 50.0 °F 85% 30.12 in 10.0 mi ESE 3.5 mph - N/A   Scattered Clouds
4:35 AM 54.9 °F - 50.4 °F 85% 30.12 in 10.0 mi ESE 3.5 mph - N/A   Mostly Cloudy
4:55 AM 55.4 °F - 50.9 °F 85% 30.12 in 10.0 mi ESE 3.5 mph - N/A   Mostly Cloudy
5:15 AM 55.4 °F - 50.9 °F 85% 30.12 in 10.0 mi SE 3.5 mph - N/A   Overcast
5:35 AM 55.9 °F - 51.1 °F 84% 30.13 in 10.0 mi Calm Calm - N/A   Overcast
5:55 AM 56.1 °F - 51.6 °F 85% 30.12 in 10.0 mi ESE 5.8 mph - N/A   Overcast
6:15 AM 56.3 °F - 51.8 °F 85% 30.13 in 10.0 mi ESE 5.8 mph - N/A   Overcast
6:35 AM 56.3 °F - 52.0 °F 85% 30.13 in 10.0 mi SE 4.6 mph - N/A   Overcast
6:55 AM 56.5 °F - 52.3 °F 86% 30.13 in 10.0 mi SSE 3.5 mph - N/A   Overcast
7:15 AM 57.2 °F - 52.7 °F 85% 30.13 in 10.0 mi SSE 3.5 mph - N/A   Overcast
7:35 AM 57.9 °F - 53.1 °F 84% 30.13 in 10.0 mi Calm Calm - N/A   Overcast
7:55 AM 58.6 °F - 53.4 °F 83% 30.13 in 10.0 mi SSE 3.5 mph - N/A   Overcast
8:15 AM 59.4 °F - 53.8 °F 82% 30.12 in 10.0 mi South 5.8 mph - N/A   Overcast
8:35 AM 60.1 °F - 54.1 °F 81% 30.12 in 10.0 mi South 4.6 mph - N/A   Overcast
8:55 AM 61.0 °F - 54.7 °F 80% 30.12 in 10.0 mi South 3.5 mph - N/A   Overcast
9:15 AM 62.2 °F - 54.9 °F 77% 30.13 in 10.0 mi SSE 4.6 mph - N/A   Overcast
9:35 AM 64.0 °F - 55.4 °F 73% 30.12 in 10.0 mi South 5.8 mph - N/A   Overcast
9:55 AM 65.3 °F - 55.4 °F 70% 30.12 in 10.0 mi SSE 5.8 mph - N/A   Overcast
10:15 AM 66.7 °F - 55.8 °F 68% 30.11 in 10.0 mi SSE 8.1 mph - N/A   Overcast
10:35 AM 67.8 °F - 55.6 °F 65% 30.11 in 10.0 mi SSE 6.9 mph - N/A   Overcast
10:55 AM 70.0 °F - 55.9 °F 61% 30.10 in 10.0 mi South 5.8 mph - N/A   Mostly Cloudy
11:15 AM 72.5 °F - 56.3 °F 57% 30.10 in 10.0 mi South 5.8 mph - N/A   Mostly Cloudy
11:35 AM 73.8 °F - 56.7 °F 55% 30.10 in 10.0 mi South 9.2 mph - N/A   Overcast
11:55 AM 74.5 °F - 56.8 °F 54% 30.09 in 10.0 mi SSW 9.2 mph - N/A   Overcast
12:15 PM 76.1 °F - 56.7 °F 51% 30.09 in 10.0 mi South 8.1 mph - N/A   Overcast
12:35 PM 76.5 °F - 56.8 °F 51% 30.08 in 10.0 mi South 8.1 mph - N/A   Overcast
12:55 PM 77.5 °F - 56.8 °F 49% 30.07 in 10.0 mi South 8.1 mph 17.3 mph N/A   Overcast
1:15 PM 77.9 °F - 56.1 °F 47% 30.07 in 10.0 mi SSW 8.1 mph - N/A   Mostly Cloudy
1:35 PM 78.8 °F - 56.3 °F 46% 30.06 in 10.0 mi South 11.5 mph - N/A   Scattered Clouds
1:55 PM 79.0 °F - 56.7 °F 46% 30.05 in 10.0 mi South 5.8 mph - N/A   Mostly Cloudy
2:15 PM 79.5 °F - 57.2 °F 46% 30.04 in 10.0 mi South 8.1 mph - N/A   Scattered Clouds
2:35 PM 80.1 °F 80.5 °F 57.6 °F 46% 30.03 in 10.0 mi South 8.1 mph - N/A   Scattered Clouds
2:55 PM 80.2 °F 80.6 °F 57.6 °F 46% 30.02 in 10.0 mi South 8.1 mph - N/A   Clear
3:15 PM 79.3 °F - 57.7 °F 47% 30.01 in 10.0 mi South 6.9 mph - N/A   Clear
3:35 PM 79.9 °F - 58.1 °F 47% 30.01 in 10.0 mi South 8.1 mph - N/A   Clear
3:55 PM 80.8 °F 81.1 °F 58.1 °F 46% 30.00 in 10.0 mi South 10.4 mph - N/A   Scattered Clouds
4:15 PM 80.6 °F 81.0 °F 58.6 °F 47% 30.01 in 10.0 mi SSE 8.1 mph - N/A   Scattered Clouds
4:35 PM 79.9 °F - 59.0 °F 49% 30.01 in 10.0 mi South 8.1 mph - N/A   Scattered Clouds
4:55 PM 78.8 °F - 59.5 °F 52% 30.00 in 10.0 mi SSE 6.9 mph - N/A   Scattered Clouds
5:15 PM 78.1 °F - 59.9 °F 53% 30.00 in 10.0 mi SSE 6.9 mph - N/A   Scattered Clouds
5:35 PM 77.5 °F - 60.3 °F 55% 30.00 in 10.0 mi SSE 5.8 mph - N/A   Scattered Clouds
5:55 PM 76.8 °F - 60.8 °F 58% 30.00 in 10.0 mi SSE 3.5 mph - N/A   Scattered Clouds
6:15 PM 75.9 °F - 61.0 °F 60% 30.00 in 10.0 mi South 3.5 mph - N/A   Scattered Clouds
6:35 PM 74.3 °F - 61.2 °F 63% 29.98 in 10.0 mi SSE 6.9 mph - N/A   Scattered Clouds
6:55 PM 73.8 °F - 61.2 °F 65% 29.97 in 10.0 mi SSE 10.4 mph - N/A   Scattered Clouds
7:15 PM 74.5 °F - 60.8 °F 62% 29.96 in 10.0 mi SSE 10.4 mph - N/A   Scattered Clouds
7:35 PM 74.5 °F - 61.0 °F 63% 29.97 in 10.0 mi South 8.1 mph - N/A   Clear
7:55 PM 73.2 °F - 62.1 °F 68% 29.97 in 10.0 mi SSE 6.9 mph - N/A   Scattered Clouds
8:15 PM 70.7 °F - 65.5 °F 83% 29.98 in 10.0 mi SE 4.6 mph - N/A   Scattered Clouds
8:35 PM 69.8 °F - 66.0 °F 88% 29.99 in 10.0 mi ESE 3.5 mph - N/A   Clear
8:55 PM 69.8 °F - 65.8 °F 87% 30.00 in 10.0 mi Calm Calm - N/A   Mostly Cloudy
9:15 PM 69.3 °F - 66.0 °F 89% 29.99 in 5.0 mi East 6.9 mph - N/A   Overcast
9:35 PM 68.7 °F - 66.2 °F 92% 30.00 in 4.0 mi East 4.6 mph - N/A   Overcast
9:55 PM 68.7 °F - 66.7 °F 93% 30.04 in 0.5 mi SE 16.1 mph 19.6 mph N/A   Overcast
10:15 PM 67.5 °F - 66.2 °F 96% 29.99 in 1.0 mi SSW 3.5 mph - N/A   Overcast
10:35 PM 66.6 °F - 65.7 °F 97% 29.98 in 1.2 mi SSW 6.9 mph - N/A   Overcast
10:55 PM 66.4 °F - 65.7 °F 98% 30.03 in 1.0 mi SSW 8.1 mph - N/A   Overcast
11:15 PM 66.2 °F - 65.5 °F 98% 30.04 in 5.0 mi SW 6.9 mph - N/A   Overcast
11:35 PM 65.7 °F - 64.9 °F 98% 30.01 in 7.0 mi South 5.8 mph - N/A   Overcast
11:55 PM 65.1 °F - 64.4 °F 98% 30.01 in 10.0 mi South 9.2 mph - N/A   Overcast